Home   Weather   Hürth   Past weeks

Flag for Germany Past Weather in Hürth, North Rhine-Westphalia, Germany — Yesterday and Last 2 Weeks

Now
50 °F

Partly sunny.


Feels Like: 44 °F
Forecast: 39 / 46 °F
Wind: 16 mph from Southwest

Location: Noervenich

Current Time: Feb 23, 2017 at 12:58:01 pm

Latest Report: Feb 23, 2017 at 11:20 am


Visibility: N/A

Pressure: 29.50 "Hg

Humidity: 76%

Dew Point: 43 °F

Location of HürthLocation

Past Weather in Hürth — Graph

°F

Hürth Temperature Yesterday

Maximum temperature yesterday: 52 °F (at 1:49 am)
Minimum temperature yesterday: 48 °F (at 8:20 am)
Average temperature yesterday: 50 °F

High & Low Weather Summary for the Past Weeks

 TemperatureHumidityPressure
High57 °F (Feb 15, 3:20 pm)100% (Feb 11, 9:20 am)30.51 "Hg (Feb 11, 9:20 am)
Low28 °F (Feb 10, 12:20 am)46% (Feb 14, 2:20 pm)29.50 "Hg (Feb 23, 11:20 am)
Average42 °F80%30.19 "Hg
* Reported Feb 8 11:20 am — Feb 23 11:20 am, Hürth, Weather by CustomWeather, © 2017

Note: Actual official high and low records may vary slightly from our data, if they occured in-between our weather recording intervals... More about our weather records

Advertising

Hürth Weather History for the Previous 24 Hours

Scroll right to see more
 ConditionsComfort  
Time TempWeatherWind HumidityBarometerVisibility
11:20 am
Thu, Feb 23
50 °FPartly sunny.16 mph76%29.50 "HgN/A
10:20 am48 °FPartly sunny.10 mph82%29.53 "HgN/A
9:20 am48 °FPartly sunny.13 mph82%29.56 "HgN/A
8:20 am48 °FPartly sunny.7 mph82%29.59 "HgN/A
7:20 am48 °FPassing clouds.9 mph87%29.62 "HgN/A
6:20 am48 °FPassing clouds.16 mph87%29.62 "HgN/A
5:20 am50 °FLight rain. Partly cloudy.18 mph82%29.65 "HgN/A
4:20 am50 °FLight rain. Passing clouds.18 mph88%29.68 "HgN/A
3:20 am50 °FLight rain. Passing clouds.16 mph88%29.68 "HgN/A
2:20 am50 °FLight rain. Passing clouds.17 mph88%29.71 "Hg6 mi
2:06 am50 °FLight rain. Passing clouds.17 mph88%29.71 "Hg6 mi
1:20 am50 °FLight rain. Passing clouds.18 mph88%29.71 "HgN/A
12:20 am50 °FLight rain. Passing clouds.21 mph88%29.71 "HgN/A
11:20 pm
Wed, Feb 22
50 °FLight rain. Passing clouds.23 mph88%29.71 "HgN/A
10:20 pm52 °FLight rain. Passing clouds.22 mph82%29.71 "HgN/A
9:20 pm50 °FLight rain. Mostly cloudy.21 mph88%29.71 "HgN/A
8:50 pm50 °FLight rain. Overcast.23 mph88%29.74 "Hg5 mi
8:20 pm50 °FLight rain. Overcast.21 mph88%29.74 "Hg5 mi
7:20 pm50 °FRain. Mostly cloudy.21 mph88%29.74 "Hg4 mi
6:20 pm50 °FRain. Mostly cloudy.22 mph88%29.74 "Hg4 mi
5:20 pm50 °FRain. More clouds than sun.24 mph88%29.71 "Hg4 mi
4:20 pm50 °FLight rain. More clouds than sun.24 mph88%29.71 "Hg4 mi
3:20 pm50 °FLight rain. Broken clouds.23 mph88%29.74 "Hg6 mi
2:20 pm52 °FBroken clouds.20 mph82%29.74 "HgN/A
1:20 pm52 °FLight rain. Broken clouds.18 mph82%29.77 "HgN/A
12:20 pm50 °FLight rain. Partly sunny.23 mph88%29.80 "HgN/A
Weather by CustomWeather, © 2017

See weather overviewHow to use our weather pages